{"data":{"norad_id":39237,"intl_designator":"2013-045A","name":"AMOS-4","alt_names":[],"object_type":"PAYLOAD","status":"ACTIVE","operator":null,"country":"ISRA","launch_date":"2013-08-31","launch_site_code":"TYMSC","launch_vehicle":null,"mission":null,"orbit_class":"UNKNOWN","rcs_meters":7.9433,"size_class":null,"mass_kg":null,"dimensions":null,"purposes":["comms"],"wikipedia_slug":null,"has_3d_model":false,"image_url":null,"decayed_at":null,"tle_current":{"epoch":"2026-05-25T04:03:07.986816Z","epoch_age_seconds":70500,"freshness":"FRESH","line1":"1 39237U 13045A   26145.16884244  .00000005  00000+0  00000+0 0  9995","line2":"2 39237   0.0126 289.9326 0002808 113.8156 324.8061  1.00270662 46724","mean_motion":1.00270662,"eccentricity":0.0002808,"inclination_deg":0.0126,"raan_deg":289.9326,"arg_perigee_deg":113.8156,"mean_anomaly_deg":324.8061,"bstar":0,"rev_number":4672,"period_min":1436.1129878648,"perigee_km":35775.069836659,"apogee_km":35798.749726931,"semimajor_km":42165.046781795,"source":"CELESTRAK","updated_at":"2026-05-25T13:38:13.945372Z"}}}